Time,TemperatureF,DewpointF,PressureIn,WindDirection,WindDirectionDegrees,WindSpeedMPH,WindSpeedGustMPH,Humidity,HourlyPrecipIn,Conditions,Clouds,dailyrainin,SoftwareType,DateUTC
2013-10-25 00:02:00,36.5,25.5,30.24,West,281,3.0,6.0,64,0.00,,,-99.99,Weather View 32 v70,2013-10-25 05:02:00,
2013-10-25 00:12:00,36.0,25.3,30.24,NW,317,5.0,6.0,65,0.00,,,-99.99,Weather View 32 v70,2013-10-25 05:12:00,
2013-10-25 00:17:00,35.6,25.0,30.24,WNW,282,3.0,6.0,65,0.00,,,-99.99,Weather View 32 v70,2013-10-25 05:17:00,
2013-10-25 00:22:00,35.4,24.8,30.24,WNW,293,4.0,6.0,65,0.00,,,-99.99,Weather View 32 v70,2013-10-25 05:22:00,
2013-10-25 00:32:00,34.7,24.1,30.24,WNW,294,0.0,6.0,65,0.00,,,-99.99,Weather View 32 v70,2013-10-25 05:32:00,
2013-10-25 00:36:00,34.3,23.8,30.24,SSW,202,0.0,6.0,65,0.00,,,-99.99,Weather View 32 v70,2013-10-25 05:36:00,
2013-10-25 00:42:00,34.0,23.8,30.24,SW,222,2.0,6.0,66,0.00,,,-99.99,Weather View 32 v70,2013-10-25 05:42:00,
2013-10-25 00:47:00,33.6,23.5,30.24,SSW,208,0.0,6.0,66,0.00,,,-99.99,Weather View 32 v70,2013-10-25 05:47:00,
2013-10-25 00:52:00,33.3,23.1,30.24,SE,141,0.0,6.0,66,0.00,,,-99.99,Weather View 32 v70,2013-10-25 05:52:00,
2013-10-25 01:02:00,33.1,23.3,30.24,WNW,294,0.0,6.0,67,0.00,,,-99.99,Weather View 32 v70,2013-10-25 06:02:00,
2013-10-25 01:12:00,32.7,23.0,30.24,WNW,290,0.0,6.0,67,0.00,,,-99.99,Weather View 32 v70,2013-10-25 06:12:00,
2013-10-25 01:22:00,32.4,23.0,30.24,SSW,211,0.0,5.0,68,0.00,,,-99.99,Weather View 32 v70,2013-10-25 06:22:00,
2013-10-25 01:27:00,32.2,23.1,30.24,SSE,151,0.0,5.0,69,0.00,,,-99.99,Weather View 32 v70,2013-10-25 06:27:00,
2013-10-25 01:32:00,32.2,23.5,30.24,SSE,154,3.0,4.0,70,0.00,,,-99.99,Weather View 32 v70,2013-10-25 06:32:00,
2013-10-25 01:42:00,31.8,23.5,30.24,South,185,3.0,4.0,71,0.00,,,-99.99,Weather View 32 v70,2013-10-25 06:42:00,
2013-10-25 01:47:00,31.6,23.3,30.24,SSW,195,0.0,4.0,71,0.00,,,-99.99,Weather View 32 v70,2013-10-25 06:47:00,
2013-10-25 01:52:00,31.3,23.0,30.24,South,185,0.0,4.0,71,0.00,,,-99.99,Weather View 32 v70,2013-10-25 06:52:00,
2013-10-25 02:02:00,30.9,23.0,30.21,South,185,0.0,4.0,72,0.00,,,-99.99,Weather View 32 v70,2013-10-25 07:02:00,
2013-10-25 02:12:00,30.7,22.8,30.21,SSE,167,0.0,4.0,72,0.00,,,-99.99,Weather View 32 v70,2013-10-25 07:12:00,
2013-10-25 02:17:00,30.7,23.1,30.21,SSE,167,0.0,4.0,73,0.00,,,-99.99,Weather View 32 v70,2013-10-25 07:17:00,
2013-10-25 02:22:00,30.7,23.1,30.21,SSE,156,2.0,4.0,73,0.00,,,-99.99,Weather View 32 v70,2013-10-25 07:22:00,
2013-10-25 02:32:00,30.6,23.3,30.21,SSE,157,0.0,4.0,74,0.00,,,-99.99,Weather View 32 v70,2013-10-25 07:32:00,
2013-10-25 02:42:00,30.2,23.2,30.21,SE,143,0.0,4.0,75,0.00,,,-99.99,Weather View 32 v70,2013-10-25 07:42:00,
2013-10-25 02:47:00,30.2,23.2,30.21,SE,131,0.0,4.0,75,0.00,,,-99.99,Weather View 32 v70,2013-10-25 07:47:00,
2013-10-25 02:57:00,29.8,22.9,30.21,SE,131,0.0,4.0,75,0.00,,,-99.99,Weather View 32 v70,2013-10-25 07:57:00,
2013-10-25 03:02:00,29.5,22.8,30.21,SE,131,0.0,4.0,76,0.00,,,-99.99,Weather View 32 v70,2013-10-25 08:02:00,
2013-10-25 03:11:00,29.1,22.5,30.21,SE,131,0.0,4.0,76,0.00,,,-99.99,Weather View 32 v70,2013-10-25 08:11:00,
2013-10-25 03:17:00,28.9,22.3,30.21,SE,131,0.0,4.0,76,0.00,,,-99.99,Weather View 32 v70,2013-10-25 08:17:00,
2013-10-25 03:22:00,28.6,22.0,30.21,SE,131,0.0,4.0,76,0.00,,,-99.99,Weather View 32 v70,2013-10-25 08:22:00,
2013-10-25 03:27:00,28.6,22.0,30.21,SE,131,0.0,4.0,76,0.00,,,-99.99,Weather View 32 v70,2013-10-25 08:27:00,
2013-10-25 03:37:00,28.4,22.1,30.18,SSE,149,0.0,4.0,77,0.00,,,-99.99,Weather View 32 v70,2013-10-25 08:37:00,
2013-10-25 03:47:00,28.2,22.2,30.18,SSE,151,0.0,4.0,78,0.00,,,-99.99,Weather View 32 v70,2013-10-25 08:47:00,
2013-10-25 03:52:00,28.2,22.2,30.18,SE,140,4.0,4.0,78,0.00,,,-99.99,Weather View 32 v70,2013-10-25 08:52:00,
2013-10-25 03:57:00,28.2,22.2,30.18,SE,141,4.0,4.0,78,0.00,,,-99.99,Weather View 32 v70,2013-10-25 08:57:00,
2013-10-25 04:02:00,28.2,22.5,30.18,SE,135,0.0,4.0,79,0.00,,,-99.99,Weather View 32 v70,2013-10-25 09:02:00,
2013-10-25 04:07:00,28.2,22.5,30.18,SE,136,0.0,4.0,79,0.00,,,-99.99,Weather View 32 v70,2013-10-25 09:07:00,
2013-10-25 04:17:00,28.2,22.8,30.18,SE,137,0.0,4.0,80,0.00,,,-99.99,Weather View 32 v70,2013-10-25 09:17:00,
2013-10-25 04:22:00,28.0,22.7,30.18,SE,137,0.0,4.0,80,0.00,,,-99.99,Weather View 32 v70,2013-10-25 09:22:00,
2013-10-25 04:27:00,28.0,22.7,30.18,SE,137,0.0,4.0,80,0.00,,,-99.99,Weather View 32 v70,2013-10-25 09:27:00,
2013-10-25 04:32:00,28.0,22.7,30.18,SE,137,0.0,4.0,80,0.00,,,-99.99,Weather View 32 v70,2013-10-25 09:32:00,
2013-10-25 04:42:00,28.0,22.7,30.18,SE,137,0.0,4.0,80,0.00,,,-99.99,Weather View 32 v70,2013-10-25 09:42:00,
2013-10-25 04:52:00,28.2,23.1,30.18,SE,139,0.0,4.0,81,0.00,,,-99.99,Weather View 32 v70,2013-10-25 09:52:00,
2013-10-25 04:57:00,28.0,23.0,30.18,SE,138,0.0,4.0,81,0.00,,,-99.99,Weather View 32 v70,2013-10-25 09:57:00,
2013-10-25 05:07:00,28.0,23.0,30.15,SE,138,0.0,4.0,81,0.00,,,-99.99,Weather View 32 v70,2013-10-25 10:07:00,
2013-10-25 05:17:00,27.9,22.8,30.15,SE,140,2.0,4.0,81,0.00,,,-99.99,Weather View 32 v70,2013-10-25 10:17:00,
2013-10-25 05:27:00,28.2,23.4,30.15,SSE,148,0.0,6.0,82,0.00,,,-99.99,Weather View 32 v70,2013-10-25 10:27:00,
2013-10-25 05:32:00,28.4,23.6,30.15,SE,138,2.0,6.0,82,0.00,,,-99.99,Weather View 32 v70,2013-10-25 10:32:00,
2013-10-25 05:42:00,28.4,23.6,30.15,SE,140,0.0,6.0,82,0.00,,,-99.99,Weather View 32 v70,2013-10-25 10:42:00,
2013-10-25 05:52:00,28.4,23.9,30.15,SSE,166,0.0,6.0,83,0.00,,,-99.99,Weather View 32 v70,2013-10-25 10:52:00,
2013-10-25 06:02:00,28.4,23.9,30.12,SSE,155,0.0,6.0,83,0.00,,,-99.99,Weather View 32 v70,2013-10-25 11:02:00,
2013-10-25 06:08:00,28.2,23.7,30.12,SE,146,0.0,6.0,83,0.00,,,-99.99,Weather View 32 v70,2013-10-25 11:08:00,
2013-10-25 06:17:00,28.4,23.9,30.12,SSE,147,0.0,6.0,83,0.00,,,-99.99,Weather View 32 v70,2013-10-25 11:17:00,
2013-10-25 06:27:00,28.8,24.5,30.12,SE,144,4.0,6.0,84,0.00,,,-99.99,Weather View 32 v70,2013-10-25 11:27:00,
2013-10-25 06:37:00,29.1,24.9,30.09,SE,132,0.0,6.0,84,0.00,,,-99.99,Weather View 32 v70,2013-10-25 11:37:00,
2013-10-25 06:42:00,29.5,25.5,30.09,SE,137,0.0,6.0,85,0.00,,,-99.99,Weather View 32 v70,2013-10-25 11:42:00,
2013-10-25 06:51:00,29.7,25.7,30.09,SSE,153,6.0,6.0,85,0.00,,,-99.99,Weather View 32 v70,2013-10-25 11:51:00,
2013-10-25 06:57:00,29.7,25.7,30.09,SE,143,0.0,6.0,85,0.00,,,-99.99,Weather View 32 v70,2013-10-25 11:57:00,
2013-10-25 07:07:00,29.7,26.0,30.09,SE,133,0.0,6.0,86,0.00,,,-99.99,Weather View 32 v70,2013-10-25 12:07:00,
2013-10-25 07:17:00,30.0,26.3,30.09,SE,142,3.0,6.0,86,0.00,,,-99.99,Weather View 32 v70,2013-10-25 12:17:00,
2013-10-25 07:22:00,30.2,26.5,30.09,SE,146,3.0,6.0,86,0.00,,,-99.99,Weather View 32 v70,2013-10-25 12:22:00,
2013-10-25 07:32:00,30.2,26.5,30.09,SE,141,0.0,6.0,86,0.00,,,-99.99,Weather View 32 v70,2013-10-25 12:32:00,
2013-10-25 07:37:00,30.0,26.1,30.09,SE,141,0.0,6.0,85,0.00,,,-99.99,Weather View 32 v70,2013-10-25 12:37:00,
2013-10-25 07:47:00,30.0,26.1,30.06,SE,142,4.0,6.0,85,0.00,,,-99.99,Weather View 32 v70,2013-10-25 12:47:00,
2013-10-25 07:52:00,30.0,26.1,30.06,SE,143,0.0,6.0,85,0.00,,,-99.99,Weather View 32 v70,2013-10-25 12:52:00,
2013-10-25 08:02:00,30.0,26.1,30.06,SSE,147,4.0,8.0,85,0.00,,,-99.99,Weather View 32 v70,2013-10-25 13:02:00,
2013-10-25 08:09:00,30.0,26.1,30.06,SE,143,5.0,8.0,85,0.00,,,-99.99,Weather View 32 v70,2013-10-25 13:09:00,
2013-10-25 08:17:00,30.0,26.1,30.03,SE,142,0.0,8.0,85,0.00,,,-99.99,Weather View 32 v70,2013-10-25 13:17:00,
2013-10-25 08:27:00,30.2,26.2,30.03,SE,142,4.0,8.0,85,0.00,,,-99.99,Weather View 32 v70,2013-10-25 13:27:00,
2013-10-25 08:37:00,30.4,26.4,30.03,SE,143,3.0,8.0,85,0.00,,,-99.99,Weather View 32 v70,2013-10-25 13:37:00,
2013-10-25 08:42:00,30.6,26.9,30.03,SE,142,3.0,8.0,86,0.00,,,-99.99,Weather View 32 v70,2013-10-25 13:42:00,
2013-10-25 08:52:00,30.9,27.2,30.03,SE,146,0.0,8.0,86,0.00,,,-99.99,Weather View 32 v70,2013-10-25 13:52:00,
2013-10-25 09:02:00,31.5,27.8,30.03,SSE,147,0.0,7.0,86,0.00,,,-99.99,Weather View 32 v70,2013-10-25 14:02:00,
2013-10-25 09:07:00,32.0,28.6,30.03,SE,130,3.0,7.0,87,0.00,,,-99.99,Weather View 32 v70,2013-10-25 14:07:00,
2013-10-25 09:17:00,32.9,29.5,30.03,SE,135,3.0,6.0,87,0.00,,,-99.99,Weather View 32 v70,2013-10-25 14:17:00,
2013-10-25 09:22:00,33.1,29.6,30.03,SE,131,3.0,7.0,87,0.00,,,-99.99,Weather View 32 v70,2013-10-25 14:22:00,
2013-10-25 09:27:00,33.3,29.8,30.03,SE,143,3.0,8.0,87,0.00,,,-99.99,Weather View 32 v70,2013-10-25 14:27:00,
2013-10-25 09:32:00,33.4,30.0,30.00,SE,137,4.0,8.0,87,0.00,,,-99.99,Weather View 32 v70,2013-10-25 14:32:00,
2013-10-25 09:41:00,34.0,30.2,30.00,SSE,151,6.0,8.0,86,0.00,,,-99.99,Weather View 32 v70,2013-10-25 14:41:00,
2013-10-25 09:47:00,34.3,30.3,30.00,SE,142,3.0,10.0,85,0.00,,,-99.99,Weather View 32 v70,2013-10-25 14:47:00,
2013-10-25 09:52:00,34.7,30.7,30.00,SSE,151,7.0,10.0,85,0.00,,,-99.99,Weather View 32 v70,2013-10-25 14:52:00,
2013-10-25 09:57:00,34.9,30.5,30.00,SSE,151,8.0,10.0,84,0.00,,,-99.99,Weather View 32 v70,2013-10-25 14:57:00,
2013-10-25 10:02:00,35.2,30.3,29.97,SSE,149,0.0,10.0,82,0.00,,,-99.99,Weather View 32 v70,2013-10-25 15:02:00,
2013-10-25 10:10:00,35.6,30.3,29.97,SE,136,5.0,10.0,81,0.00,,,-99.99,Weather View 32 v70,2013-10-25 15:10:00,
2013-10-25 10:17:00,36.1,29.9,29.97,SSE,159,6.0,10.0,78,0.00,,,-99.99,Weather View 32 v70,2013-10-25 15:17:00,
2013-10-25 10:22:00,36.5,30.0,29.97,SE,139,4.0,10.0,77,0.00,,,-99.99,Weather View 32 v70,2013-10-25 15:22:00,
2013-10-25 10:27:00,37.0,30.2,29.97,SE,143,5.0,10.0,76,0.00,,,-99.99,Weather View 32 v70,2013-10-25 15:27:00,
2013-10-25 10:32:00,37.6,30.0,29.94,SE,132,3.0,10.0,74,0.00,,,-99.99,Weather View 32 v70,2013-10-25 15:32:00,
2013-10-25 10:42:00,39.0,30.1,29.94,SSE,147,8.0,10.0,70,0.00,,,-99.99,Weather View 32 v70,2013-10-25 15:42:00,
2013-10-25 10:47:00,39.6,29.1,29.94,SSE,148,6.0,11.0,66,0.00,,,-99.99,Weather View 32 v70,2013-10-25 15:47:00,
2013-10-25 10:52:00,40.3,28.7,29.94,SE,140,6.0,11.0,63,0.00,,,-99.99,Weather View 32 v70,2013-10-25 15:52:00,
2013-10-25 11:02:00,41.2,28.3,29.92,SE,143,11.0,11.0,60,0.00,,,-99.99,Weather View 32 v70,2013-10-25 16:02:00,
2013-10-25 11:07:00,42.1,27.9,29.92,SE,139,8.0,13.0,57,0.00,,,-99.99,Weather View 32 v70,2013-10-25 16:07:00,
2013-10-25 11:12:00,42.4,28.3,29.92,SE,124,8.0,13.0,57,0.00,,,-99.99,Weather View 32 v70,2013-10-25 16:12:00,
2013-10-25 11:17:00,43.0,27.9,29.89,SE,141,5.0,13.0,55,0.00,,,-99.99,Weather View 32 v70,2013-10-25 16:17:00,
2013-10-25 11:27:00,44.2,28.6,29.89,SE,129,5.0,15.0,54,0.00,,,-99.99,Weather View 32 v70,2013-10-25 16:27:00,
2013-10-25 11:32:00,45.0,28.8,29.89,ESE,118,8.0,15.0,53,0.00,,,-99.99,Weather View 32 v70,2013-10-25 16:32:00,
2013-10-25 11:42:00,46.2,29.5,29.89,SE,134,6.0,15.0,52,0.00,,,-99.99,Weather View 32 v70,2013-10-25 16:42:00,
2013-10-25 11:47:00,46.8,30.0,29.86,SE,131,6.0,15.0,52,0.00,,,-99.99,Weather View 32 v70,2013-10-25 16:47:00,
2013-10-25 11:52:00,47.1,30.4,29.86,ESE,117,4.0,15.0,52,0.00,,,-99.99,Weather View 32 v70,2013-10-25 16:52:00,
2013-10-25 12:02:00,48.6,30.7,29.86,SSE,149,4.0,15.0,50,0.00,,,-99.99,Weather View 32 v70,2013-10-25 17:02:00,
2013-10-25 12:11:00,49.3,30.9,29.86,SE,136,8.0,15.0,49,0.00,,,-99.99,Weather View 32 v70,2013-10-25 17:11:00,
2013-10-25 12:17:00,50.0,31.0,29.86,East,101,5.0,15.0,48,0.00,,,-99.99,Weather View 32 v70,2013-10-25 17:17:00,
2013-10-25 12:22:00,50.4,31.4,29.86,South,172,5.0,15.0,48,0.00,,,-99.99,Weather View 32 v70,2013-10-25 17:22:00,
2013-10-25 12:27:00,50.5,31.5,29.86,South,189,8.0,13.0,48,0.00,,,-99.99,Weather View 32 v70,2013-10-25 17:27:00,
2013-10-25 12:37:00,51.4,31.8,29.83,South,175,9.0,13.0,47,0.00,,,-99.99,Weather View 32 v70,2013-10-25 17:37:00,
2013-10-25 12:42:00,51.8,31.6,29.83,SSE,150,3.0,13.0,46,0.00,,,-99.99,Weather View 32 v70,2013-10-25 17:42:00,
2013-10-25 12:47:00,52.0,31.8,29.83,South,187,11.0,13.0,46,0.00,,,-99.99,Weather View 32 v70,2013-10-25 17:47:00,
2013-10-25 12:52:00,52.2,32.0,29.83,SSE,154,5.0,13.0,46,0.00,,,-99.99,Weather View 32 v70,2013-10-25 17:52:00,
2013-10-25 13:02:00,52.5,32.8,29.83,NNW,334,4.0,13.0,47,0.00,,,-99.99,Weather View 32 v70,2013-10-25 18:02:00,
2013-10-25 13:07:00,52.9,33.2,29.83,WNW,289,3.0,13.0,47,0.00,,,-99.99,Weather View 32 v70,2013-10-25 18:07:00,
2013-10-25 13:12:00,53.1,33.3,29.83,East,96,8.0,13.0,47,0.00,,,-99.99,Weather View 32 v70,2013-10-25 18:12:00,
2013-10-25 13:22:00,52.7,32.5,29.83,West,274,8.0,13.0,46,0.00,,,-99.99,Weather View 32 v70,2013-10-25 18:22:00,
2013-10-25 13:27:00,52.7,33.0,29.83,SE,141,8.0,13.0,47,0.00,,,-99.99,Weather View 32 v70,2013-10-25 18:27:00,
2013-10-25 13:32:00,52.9,32.6,29.80,SE,145,9.0,13.0,46,0.00,,,-99.99,Weather View 32 v70,2013-10-25 18:32:00,
2013-10-25 13:42:00,53.4,33.7,29.80,SSW,210,5.0,13.0,47,0.00,,,-99.99,Weather View 32 v70,2013-10-25 18:42:00,
2013-10-25 13:47:00,53.8,33.4,29.80,SE,145,8.0,13.0,46,0.00,,,-99.99,Weather View 32 v70,2013-10-25 18:47:00,
2013-10-25 13:52:00,54.3,33.9,29.80,SSE,157,9.0,14.0,46,0.00,,,-99.99,Weather View 32 v70,2013-10-25 18:52:00,
2013-10-25 13:57:00,54.5,34.1,29.80,ENE,70,6.0,14.0,46,0.00,,,-99.99,Weather View 32 v70,2013-10-25 18:57:00,
2013-10-25 14:07:00,55.4,34.4,29.80,SE,127,3.0,14.0,45,0.00,,,-99.99,Weather View 32 v70,2013-10-25 19:07:00,
2013-10-25 14:12:00,55.6,34.5,29.80,ESE,116,4.0,14.0,45,0.00,,,-99.99,Weather View 32 v70,2013-10-25 19:12:00,
2013-10-25 14:17:00,55.9,35.4,29.77,WNW,291,6.0,14.0,46,0.00,,,-99.99,Weather View 32 v70,2013-10-25 19:17:00,
2013-10-25 14:22:00,56.5,35.9,29.77,SW,235,8.0,14.0,46,0.00,,,-99.99,Weather View 32 v70,2013-10-25 19:22:00,
2013-10-25 14:27:00,57.4,36.2,29.77,NW,314,10.0,14.0,45,0.00,,,-99.99,Weather View 32 v70,2013-10-25 19:27:00,
2013-10-25 14:32:00,57.7,35.9,29.77,WSW,252,3.0,15.0,44,0.00,,,-99.99,Weather View 32 v70,2013-10-25 19:32:00,
2013-10-25 14:42:00,57.9,34.9,29.77,ESE,118,6.0,15.0,42,0.00,,,-99.99,Weather View 32 v70,2013-10-25 19:42:00,
2013-10-25 14:47:00,57.7,35.9,29.77,NW,312,10.0,15.0,44,0.00,,,-99.99,Weather View 32 v70,2013-10-25 19:47:00,
2013-10-25 14:57:00,58.3,37.0,29.77,North,353,6.0,15.0,45,0.00,,,-99.99,Weather View 32 v70,2013-10-25 19:57:00,
2013-10-25 15:02:00,58.8,36.9,29.77,West,277,13.0,15.0,44,0.00,,,-99.99,Weather View 32 v70,2013-10-25 20:02:00,
2013-10-25 15:07:00,59.2,36.6,29.77,West,267,8.0,15.0,43,0.00,,,-99.99,Weather View 32 v70,2013-10-25 20:07:00,
2013-10-25 15:12:00,59.5,37.0,29.77,NW,304,6.0,15.0,43,0.00,,,-99.99,Weather View 32 v70,2013-10-25 20:12:00,
2013-10-25 15:22:00,60.3,35.8,29.77,West,272,8.0,15.0,40,0.00,,,-99.99,Weather View 32 v70,2013-10-25 20:22:00,
2013-10-25 15:27:00,60.3,35.8,29.77,West,276,13.0,15.0,40,0.00,,,-99.99,Weather View 32 v70,2013-10-25 20:27:00,
2013-10-25 15:32:00,60.1,35.6,29.77,NW,308,11.0,13.0,40,0.00,,,-99.99,Weather View 32 v70,2013-10-25 20:32:00,
2013-10-25 15:37:00,59.7,35.3,29.77,WNW,289,8.0,13.0,40,0.00,,,-99.99,Weather View 32 v70,2013-10-25 20:37:00,
2013-10-25 15:42:00,59.5,35.1,29.77,West,261,7.0,13.0,40,0.00,,,-99.99,Weather View 32 v70,2013-10-25 20:42:00,
2013-10-25 15:52:00,59.5,35.8,29.77,WNW,291,8.0,13.0,41,0.00,,,-99.99,Weather View 32 v70,2013-10-25 20:52:00,
2013-10-25 15:57:00,59.4,35.0,29.77,West,262,6.0,13.0,40,0.00,,,-99.99,Weather View 32 v70,2013-10-25 20:57:00,
2013-10-25 16:02:00,59.4,35.0,29.77,NW,307,6.0,13.0,40,0.00,,,-99.99,Weather View 32 v70,2013-10-25 21:02:00,
2013-10-25 16:12:00,59.7,35.3,29.77,WNW,286,8.0,13.0,40,0.00,,,-99.99,Weather View 32 v70,2013-10-25 21:12:00,
2013-10-25 16:17:00,59.7,34.7,29.74,West,266,7.0,13.0,39,0.00,,,-99.99,Weather View 32 v70,2013-10-25 21:17:00,
2013-10-25 16:22:00,59.7,34.7,29.74,WNW,284,5.0,13.0,39,0.00,,,-99.99,Weather View 32 v70,2013-10-25 21:22:00,
2013-10-25 16:27:00,59.7,34.7,29.74,West,261,8.0,13.0,39,0.00,,,-99.99,Weather View 32 v70,2013-10-25 21:27:00,
2013-10-25 16:32:00,59.7,34.7,29.74,WNW,291,8.0,13.0,39,0.00,,,-99.99,Weather View 32 v70,2013-10-25 21:32:00,
2013-10-25 16:37:00,59.7,34.7,29.74,WNW,291,6.0,13.0,39,0.00,,,-99.99,Weather View 32 v70,2013-10-25 21:37:00,
2013-10-25 16:47:00,59.4,35.0,29.74,WNW,297,6.0,12.0,40,0.00,,,-99.99,Weather View 32 v70,2013-10-25 21:47:00,
2013-10-25 16:52:00,59.4,34.3,29.74,NW,315,6.0,12.0,39,0.00,,,-99.99,Weather View 32 v70,2013-10-25 21:52:00,
2013-10-25 16:57:00,59.4,35.0,29.74,West,271,8.0,11.0,40,0.00,,,-99.99,Weather View 32 v70,2013-10-25 21:57:00,
2013-10-25 17:07:00,59.4,34.3,29.74,NW,312,10.0,11.0,39,0.00,,,-99.99,Weather View 32 v70,2013-10-25 22:07:00,
2013-10-25 17:12:00,59.5,33.2,29.74,West,266,6.0,11.0,37,0.00,,,-99.99,Weather View 32 v70,2013-10-25 22:12:00,
2013-10-25 17:17:00,59.5,33.2,29.74,West,279,6.0,11.0,37,0.00,,,-99.99,Weather View 32 v70,2013-10-25 22:17:00,
2013-10-25 17:22:00,59.5,33.2,29.74,West,266,8.0,11.0,37,0.00,,,-99.99,Weather View 32 v70,2013-10-25 22:22:00,
2013-10-25 17:27:00,59.5,33.2,29.74,SSW,210,8.0,11.0,37,0.00,,,-99.99,Weather View 32 v70,2013-10-25 22:27:00,
2013-10-25 17:37:00,59.4,33.0,29.77,WNW,287,5.0,11.0,37,0.00,,,-99.99,Weather View 32 v70,2013-10-25 22:37:00,
2013-10-25 17:42:00,59.2,32.9,29.77,West,279,8.0,10.0,37,0.00,,,-99.99,Weather View 32 v70,2013-10-25 22:42:00,
2013-10-25 17:47:00,59.0,32.7,29.77,West,275,8.0,10.0,37,0.00,,,-99.99,Weather View 32 v70,2013-10-25 22:47:00,
2013-10-25 17:52:00,58.8,32.5,29.77,West,259,6.0,10.0,37,0.00,,,-99.99,Weather View 32 v70,2013-10-25 22:52:00,
2013-10-25 17:57:00,58.6,32.4,29.77,West,262,8.0,10.0,37,0.00,,,-99.99,Weather View 32 v70,2013-10-25 22:57:00,
2013-10-25 18:07:00,58.3,32.1,29.77,WNW,297,6.0,10.0,37,0.00,,,-99.99,Weather View 32 v70,2013-10-25 23:07:00,
2013-10-25 18:12:00,58.1,31.9,29.77,West,281,4.0,10.0,37,0.00,,,-99.99,Weather View 32 v70,2013-10-25 23:12:00,
2013-10-25 18:17:00,57.7,31.6,29.77,WSW,253,3.0,10.0,37,0.00,,,-99.99,Weather View 32 v70,2013-10-25 23:17:00,
2013-10-25 18:27:00,56.8,31.4,29.77,West,277,3.0,9.0,38,0.00,,,-99.99,Weather View 32 v70,2013-10-25 23:27:00,
2013-10-25 18:37:00,55.9,30.6,29.77,West,270,0.0,9.0,38,0.00,,,-99.99,Weather View 32 v70,2013-10-25 23:37:00,
2013-10-25 18:42:00,55.4,30.2,29.77,WSW,254,0.0,9.0,38,0.00,,,-99.99,Weather View 32 v70,2013-10-25 23:42:00,
2013-10-25 18:47:00,54.9,30.3,29.77,WNW,298,3.0,9.0,39,0.00,,,-99.99,Weather View 32 v70,2013-10-25 23:47:00,
2013-10-25 18:57:00,54.3,29.8,29.77,WNW,296,4.0,9.0,39,0.00,,,-99.99,Weather View 32 v70,2013-10-25 23:57:00,
2013-10-25 19:02:00,54.3,29.8,29.77,West,276,3.0,8.0,39,0.00,,,-99.99,Weather View 32 v70,2013-10-26 00:02:00,
2013-10-25 19:07:00,54.1,29.7,29.77,West,277,3.0,8.0,39,0.00,,,-99.99,Weather View 32 v70,2013-10-26 00:07:00,
2013-10-25 19:15:00,54.0,29.5,29.77,West,271,4.0,8.0,39,0.00,,,-99.99,Weather View 32 v70,2013-10-26 00:15:00,
2013-10-25 19:22:00,54.1,29.0,29.80,NW,310,5.0,8.0,38,0.00,,,-99.99,Weather View 32 v70,2013-10-26 00:22:00,
2013-10-25 19:27:00,54.1,29.0,29.80,NW,315,7.0,8.0,38,0.00,,,-99.99,Weather View 32 v70,2013-10-26 00:27:00,
2013-10-25 19:32:00,54.0,28.9,29.80,West,278,6.0,8.0,38,0.00,,,-99.99,Weather View 32 v70,2013-10-26 00:32:00,
2013-10-25 19:37:00,53.6,28.6,29.80,WNW,292,4.0,8.0,38,0.00,,,-99.99,Weather View 32 v70,2013-10-26 00:37:00,
2013-10-25 19:47:00,53.1,28.7,29.80,NNW,328,4.0,8.0,39,0.00,,,-99.99,Weather View 32 v70,2013-10-26 00:47:00,
2013-10-25 19:52:00,52.9,28.6,29.80,NW,305,6.0,9.0,39,0.00,,,-99.99,Weather View 32 v70,2013-10-26 00:52:00,
2013-10-25 19:57:00,53.1,28.7,29.80,NW,323,6.0,9.0,39,0.00,,,-99.99,Weather View 32 v70,2013-10-26 00:57:00,
2013-10-25 20:07:00,53.1,28.7,29.80,NNW,341,8.0,10.0,39,0.00,,,-99.99,Weather View 32 v70,2013-10-26 01:07:00,
2013-10-25 20:12:00,52.9,28.6,29.80,WNW,298,6.0,10.0,39,0.00,,,-99.99,Weather View 32 v70,2013-10-26 01:12:00,
2013-10-25 20:22:00,52.3,28.1,29.83,NW,326,5.0,14.0,39,0.00,,,-99.99,Weather View 32 v70,2013-10-26 01:22:00,
2013-10-25 20:27:00,52.0,28.4,29.83,NW,310,6.0,14.0,40,0.00,,,-99.99,Weather View 32 v70,2013-10-26 01:27:00,
2013-10-25 20:37:00,51.4,27.9,29.83,NNW,327,6.0,14.0,40,0.00,,,-99.99,Weather View 32 v70,2013-10-26 01:37:00,
2013-10-25 20:42:00,51.3,27.7,29.83,NW,319,6.0,14.0,40,0.00,,,-99.99,Weather View 32 v70,2013-10-26 01:42:00,
2013-10-25 20:47:00,50.7,27.8,29.83,NW,322,8.0,14.0,41,0.00,,,-99.99,Weather View 32 v70,2013-10-26 01:47:00,
2013-10-25 20:57:00,50.2,27.9,29.83,WSW,255,6.0,14.0,42,0.00,,,-99.99,Weather View 32 v70,2013-10-26 01:57:00,
2013-10-25 21:02:00,49.8,28.2,29.83,NW,313,6.0,14.0,43,0.00,,,-99.99,Weather View 32 v70,2013-10-26 02:02:00,
2013-10-25 21:07:00,49.6,27.4,29.83,North,0,5.0,14.0,42,0.00,,,-99.99,Weather View 32 v70,2013-10-26 02:07:00,
2013-10-25 21:17:00,49.3,27.1,29.86,NNW,330,6.0,14.0,42,0.00,,,-99.99,Weather View 32 v70,2013-10-26 02:17:00,
2013-10-25 21:22:00,48.9,26.8,29.86,NW,325,6.0,13.0,42,0.00,,,-99.99,Weather View 32 v70,2013-10-26 02:22:00,
2013-10-25 21:27:00,48.7,27.2,29.86,West,269,6.0,13.0,43,0.00,,,-99.99,Weather View 32 v70,2013-10-26 02:27:00,
2013-10-25 21:32:00,48.4,26.9,29.86,West,277,5.0,13.0,43,0.00,,,-99.99,Weather View 32 v70,2013-10-26 02:32:00,
2013-10-25 21:42:00,47.8,26.9,29.86,NNW,329,8.0,13.0,44,0.00,,,-99.99,Weather View 32 v70,2013-10-26 02:42:00,
2013-10-25 21:47:00,47.7,26.8,29.86,NW,311,3.0,13.0,44,0.00,,,-99.99,Weather View 32 v70,2013-10-26 02:47:00,
2013-10-25 21:52:00,47.5,26.1,29.86,NW,320,6.0,11.0,43,0.00,,,-99.99,Weather View 32 v70,2013-10-26 02:52:00,
2013-10-25 21:57:00,47.3,25.9,29.86,NNE,18,6.0,11.0,43,0.00,,,-99.99,Weather View 32 v70,2013-10-26 02:57:00,
2013-10-25 22:07:00,46.0,26.4,29.89,NNW,345,5.0,12.0,46,0.00,,,-99.99,Weather View 32 v70,2013-10-26 03:07:00,
2013-10-25 22:12:00,45.1,26.1,29.89,NNE,27,6.0,12.0,47,0.00,,,-99.99,Weather View 32 v70,2013-10-26 03:12:00,
2013-10-25 22:17:00,44.2,25.8,29.92,North,6,6.0,12.0,48,0.00,,,-99.99,Weather View 32 v70,2013-10-26 03:17:00,
2013-10-25 22:27:00,43.0,24.6,29.92,NW,322,5.0,12.0,48,0.00,,,-99.99,Weather View 32 v70,2013-10-26 03:27:00,
2013-10-25 22:32:00,42.8,24.9,29.92,NNW,348,6.0,12.0,49,0.00,,,-99.99,Weather View 32 v70,2013-10-26 03:32:00,
2013-10-25 22:37:00,42.4,24.6,29.92,NNW,346,10.0,12.0,49,0.00,,,-99.99,Weather View 32 v70,2013-10-26 03:37:00,
2013-10-25 22:47:00,41.9,24.6,29.92,NW,314,6.0,13.0,50,0.00,,,-99.99,Weather View 32 v70,2013-10-26 03:47:00,
2013-10-25 22:52:00,41.5,24.3,29.92,North,357,5.0,13.0,50,0.00,,,-99.99,Weather View 32 v70,2013-10-26 03:52:00,
2013-10-25 22:57:00,41.4,24.1,29.92,NNW,348,5.0,13.0,50,0.00,,,-99.99,Weather View 32 v70,2013-10-26 03:57:00,
2013-10-25 23:02:00,41.2,24.4,29.92,NNW,330,4.0,13.0,51,0.00,,,-99.99,Weather View 32 v70,2013-10-26 04:02:00,
2013-10-25 23:07:00,41.0,23.8,29.92,NW,315,4.0,13.0,50,0.00,,,-99.99,Weather View 32 v70,2013-10-26 04:07:00,
2013-10-25 23:12:00,40.6,23.9,29.92,NW,322,0.0,13.0,51,0.00,,,-99.99,Weather View 32 v70,2013-10-26 04:12:00,
2013-10-25 23:17:00,40.3,23.6,29.92,WNW,284,6.0,13.0,51,0.00,,,-99.99,Weather View 32 v70,2013-10-26 04:17:00,
2013-10-25 23:18:00,40.3,23.6,29.92,WNW,284,6.0,13.0,51,0.00,,,-99.99,Weather View 32 v70,2013-10-26 04:18:00,
2013-10-25 23:27:00,39.9,24.2,29.92,WNW,301,5.0,13.0,53,0.00,,,-99.99,Weather View 32 v70,2013-10-26 04:27:00,
2013-10-25 23:37:00,39.7,24.4,29.94,NNW,330,4.0,13.0,54,0.00,,,-99.99,Weather View 32 v70,2013-10-26 04:37:00,
2013-10-25 23:42:00,39.6,23.8,29.94,NW,312,5.0,13.0,53,0.00,,,-99.99,Weather View 32 v70,2013-10-26 04:42:00,
2013-10-25 23:47:00,39.4,23.7,29.94,NW,322,3.0,13.0,53,0.00,,,-99.99,Weather View 32 v70,2013-10-26 04:47:00,
2013-10-25 23:52:00,39.2,23.9,29.94,NNW,329,0.0,9.0,54,0.00,,,-99.99,Weather View 32 v70,2013-10-26 04:52:00,
2013-10-25 23:57:00,39.0,24.2,29.94,NW,322,4.0,9.0,55,0.00,,,-99.99,Weather View 32 v70,2013-10-26 04:57:00,